Regional Weather Roundup
Issued by NWS

Home | Current Version | Previous Version | Text Only | Print | Product List | Glossary Off
Versions: 1 2 3 4 5 6 7 8 9 10 11 12 13 14 15 16 17 18 19 20 21 22 23 24 25 26 27 28 29 30 31 32 33 34 35 36 37 38 39 40 41 42 43 44 45 46 47 48 49 50

000
ASUS45 KABQ 140701
RWRNM
WEATHER ROUNDUP FOR NEW MEXICO
NATIONAL WEATHER SERVICE ALBUQUERQUE NM
100 AM MDT MON JUL 14 2014

NOTE: "FAIR" MEANS FEW OR NO CLOUDS BELOW 12,000 FEET AGL WITH NO
       SIGNIFICANT WEATHER OR OBSTRUCTIONS TO VISION.

      THIS PRODUCT IS RELEASED AS TWO VERSIONS.  ONE VERSION NEAR
      THE TOP OF THE HOUR CONTAINING PRELIMINARY DATA FROM ALBUQUERQUE
      AND OTHER STATIONS.  A FINAL VERSION WITH ADDITIONAL DATA IS
      ISSUED ABOUT 10 MINUTES AFTER THE HOUR.

NMZ501-503-504-510>518-140800-
NORTHWEST PLATEAU/NORTHCENTRAL MOUNTAINS

CITY           SKY/WX    TMP DP  RH WIND       PRES   REMARKS
FARMINGTON     CLEAR     72  50  45 S7        30.26R
LOS ALAMOS     CLOUDY    61  52  73 N3        30.46R
SANTA FE       LGT RAIN  62  55  77 N6        30.38R
TAOS             N/A    N/A N/A N/A MISG        N/A
ANGEL FIRE     FAIR      55  53  93 CALM      30.52S

$$
NMZ402-403-502-505>509-140800-
WESTCENTRAL MOUNTAINS/SOUTHWEST MOUNTAINS

CITY           SKY/WX    TMP DP  RH WIND       PRES   REMARKS
GALLUP         LGT RAIN  61  55  81 VRB6G16   30.37F
GRANTS         CLOUDY    62  53  73 CALM      30.38F

$$
NMZ407-409-411-412-140800-
SOUTHERN DESERTS

CITY           SKY/WX    TMP DP  RH WIND       PRES   REMARKS
LORDSBURG      PTSUNNY   75  57  53 N6        30.16F
DEMING         MOCLDY    78  59  51 CALM      30.17S
LAS CRUCES     CLOUDY    79  55  42 N14       30.18S
HOLLOMAN AFB   MOCLDY    71  56  59 E2        30.15S
T OR C         MOCLDY    73  56  54 NW3       30.23S

$$
NMZ519>523-140800-
CENTRAL VALLEYS/CENTRAL HIGHLANDS

CITY           SKY/WX    TMP DP  RH WIND       PRES   REMARKS
ALBUQUERQUE    CLOUDY    72  54  53 NE5       30.30R
DOUBLE EAGLE   CLOUDY    69  54  58 NE7       30.33S
CLINES CORNERS CLOUDY    58  53  84 NW6       30.38S
BELEN          FAIR      69  55  59 S8        30.29R
SOCORRO        HVY RAIN  71  60  69 NE5       30.26R

$$
NMZ524>526-539-540-140800-
SOUTHCENTRAL MOUNTAINS

CITY           SKY/WX    TMP DP  RH WIND       PRES   REMARKS
RUIDOSO        NOT AVBL

$$
NMZ527>531-140800-
NORTHEAST HIGHLANDS/NORTHEAST PLAINS

CITY           SKY/WX    TMP DP  RH WIND       PRES   REMARKS
LAS VEGAS      CLOUDY    58  56  93 W6        30.40F
RATON          CLOUDY    64  60  87 N3        30.33F
CLAYTON        MOCLDY    66  59  78 CALM      30.25F

$$
NMZ532>537-140800-
EASTCENTRAL PLAINS

CITY           SKY/WX    TMP DP  RH WIND       PRES   REMARKS
TUCUMCARI      PTCLDY    73  55  53 NW8       30.20F
CANNON AFB     MOCLDY    71  61  70 N10       30.21F
CLOVIS AIRPORT NOT AVBL

$$
NMZ028-029-538-140800-
SOUTHEAST PLAINS

CITY           SKY/WX    TMP DP  RH WIND       PRES   REMARKS
ROSWELL        PTCLDY    75  57  53 SE5       30.17S
ARTESIA        CLEAR     77  55  47 N9        30.17S
CARLSBAD       CLEAR     80  54  40 S10       30.13R
HOBBS          CLEAR     77  55  47 S10       30.17S


$$



USA.gov is the U.S. government's official web portal to all federal, state and local government web resources and services.